STARLINK-1480, 45741

Orbit data source: Space-Track

STARLINK-1480, 45741 is a payload satellite owned by SpaceX/Seattle (US) in LEO that was launched on Sat, 13 Jun 2020 UTC via an FALCON 9 launch vehicle from the Air Force Eastern Test Range (AFETR). Payload-class satellites include a variety of spacecraft equipped with specific instruments for various scientific and technological missions. These include communications satellites like Starlink; space stations such as the ISS; scientific satellites like the Hubble; Earth observation satellites from companies like Planet Labs, Umbra, and HawkEye 360; GPS; miniature CubeSats for education and research; and military/defense satellites.

Loading next visibility...
Identifier
45741, 2020-038M
Orbit
LEO
Country
Flag of USUS
Related business
Manufacturer
SpaceX/Seattle
Mission
Partially operational Commercial Communications
Bus & Motor
STARLINK, Unknown motor
Mass
260 kg wet, ~248 kg dry
Launch date (UTC)
2020-06-13 (6 years ago)
Launch vehicle
FALCON 9
Launch site
Air Force Eastern Test Range (AFETR)
Object type
Payload
Rocket body
Debris
Shape & HBR
Box + 1 Pan, 10.1 m
Radar Cross Section
13.562 m², Large (>1 m²)

Expand to show TLE details & history
Last TLE update: 14 hours ago

TLE from 14 hours ago
0 STARLINK-1480
1 45741U 20038M   26123.73859201  .00106622  00000-0  12726-2 0  9990
2 45741  53.0505 311.0215 0002767 244.3315 115.7411 15.60239789325042
Epoch: 2026-05-03T17:43Z
TLE epoch observation values (Epoch: 2026-05-03T17:43:34.349Z)
Latitude
-0.00009°
Longitude
-176.50952°
Altitude
388.677 km
Speed
7.678 km/s
True Right ascension
20h 44m 05s
True Declination
0° 00' 00"
Sunlit
Object was in daylight at epoch
Visualization orbit readout
Latitude
Unknown
Longitude
Unknown
Altitude
Unknown
Speed
Unknown
Apparent Right ascension
Unknown
Apparent Declination
Unknown
Sunlit
N/A
Visualization observer readout
Local Sidereal Time
15:49:17
Azimuth
Unknown
Elevation
Unknown
Doppler factor
Unknown
Orbital elements
Apogee altitude
389.113 km
Perigee altitude
385.369 km
Semi-major axis
6,765.378 km
Eccentricity
0.00028
Inclination
53.0505°
RAAN
311.0215°
Arg. of periapsis
244.3315°
True anomaly
115.76966°
Mean anomaly
115.7411°
Eccentric anomaly
115.75538°
Mean motion
3.90036 °/min
Orbital period
92.3 mins
BSTAR
0.0012726
Loading maneuver chart data...
Computing Atmospheric mass density...
Loading historical data...
Loading historical data...
Loading historical data...
Loading historical data...
Loading historical data...
Loading historical data...
Loading historical data...

Documentation

Showing up to 5 results
|